Time,TemperatureF,DewpointF,PressureIn,WindDirection,WindDirectionDegrees,WindSpeedMPH,WindSpeedGustMPH,Humidity,HourlyPrecipIn,Conditions,Clouds,dailyrainin,SoftwareType,DateUTC
2013-02-17 00:00:00,30.1,13.7,29.77,NNW,334,10.0,10.0,50,0.00,,OVC100,0.00,VWS V14.01,2013-02-17 05:00:00,
2013-02-17 00:05:00,30.0,14.1,29.77,NNW,340,5.0,13.0,51,0.00,,OVC100,0.00,VWS V14.01,2013-02-17 05:05:00,
2013-02-17 00:10:00,30.0,13.6,29.77,WNW,296,3.0,14.0,50,0.00,,OVC100,0.00,VWS V14.01,2013-02-17 05:10:00,
2013-02-17 00:15:00,29.9,14.0,29.77,NNW,331,7.0,15.0,51,0.00,,OVC100,0.00,VWS V14.01,2013-02-17 05:15:00,
2013-02-17 00:20:00,29.9,14.0,29.76,WNW,291,5.0,15.0,51,0.00,,OVC100,0.00,VWS V14.01,2013-02-17 05:20:00,
2013-02-17 00:25:00,29.8,13.4,29.76,NNW,329,6.0,15.0,50,0.00,,OVC100,0.00,VWS V14.01,2013-02-17 05:25:00,
2013-02-17 00:30:00,29.7,13.4,29.76,NNW,332,3.0,9.0,50,0.00,,OVC100,0.00,VWS V14.01,2013-02-17 05:30:00,
2013-02-17 00:35:00,29.6,13.3,29.76,NNW,331,5.0,9.0,50,0.00,,OVC100,0.00,VWS V14.01,2013-02-17 05:35:00,
2013-02-17 00:40:00,29.6,13.7,29.76,NW,313,3.0,12.0,51,0.00,,OVC100,0.00,VWS V14.01,2013-02-17 05:40:00,
2013-02-17 00:45:00,29.6,13.3,29.76,WNW,300,7.0,12.0,50,0.00,,OVC100,0.00,VWS V14.01,2013-02-17 05:45:00,
2013-02-17 00:50:00,29.5,13.2,29.76,NNW,336,5.0,16.0,50,0.00,,OVC100,0.00,VWS V14.01,2013-02-17 05:50:00,
2013-02-17 00:55:00,29.4,13.1,29.75,NW,317,5.0,16.0,50,0.00,,OVC100,0.00,VWS V14.01,2013-02-17 05:55:00,
2013-02-17 01:00:00,29.3,13.0,29.75,WNW,303,5.0,10.0,50,0.00,,OVC110,0.00,VWS V14.01,2013-02-17 06:00:00,
2013-02-17 01:05:00,29.3,13.4,29.75,NW,317,4.0,12.0,51,0.00,,OVC110,0.00,VWS V14.01,2013-02-17 06:05:00,
2013-02-17 01:11:00,29.2,13.3,29.75,NW,326,13.0,13.0,51,0.00,,OVC110,0.00,VWS V14.01,2013-02-17 06:11:00,
2013-02-17 01:16:00,29.2,13.3,29.75,NW,317,1.0,16.0,51,0.00,,OVC110,0.00,VWS V14.01,2013-02-17 06:16:00,
2013-02-17 01:21:00,29.1,13.2,29.75,NNW,331,11.0,16.0,51,0.00,,OVC110,0.00,VWS V14.01,2013-02-17 06:21:00,
2013-02-17 01:26:00,29.1,13.2,29.76,NW,309,5.0,16.0,51,0.00,,OVC110,0.00,VWS V14.01,2013-02-17 06:26:00,
2013-02-17 01:31:00,29.0,13.1,29.76,NW,309,3.0,9.0,51,0.00,,OVC110,0.00,VWS V14.01,2013-02-17 06:31:00,
2013-02-17 01:36:00,29.0,13.1,29.76,NW,324,5.0,13.0,51,0.00,,OVC110,0.00,VWS V14.01,2013-02-17 06:36:00,
2013-02-17 01:41:00,29.0,13.1,29.76,NNW,329,6.0,13.0,51,0.00,,OVC110,0.00,VWS V14.01,2013-02-17 06:41:00,
2013-02-17 01:46:00,28.9,13.1,29.76,WNW,288,3.0,13.0,51,0.00,,OVC110,0.00,VWS V14.01,2013-02-17 06:46:00,
2013-02-17 01:51:00,28.9,12.6,29.75,NW,324,4.0,14.0,50,0.00,,OVC110,0.00,VWS V14.01,2013-02-17 06:51:00,
2013-02-17 01:56:00,28.8,12.5,29.75,NW,315,3.0,14.0,50,0.00,,OVC110,0.00,VWS V14.01,2013-02-17 06:56:00,
2013-02-17 02:01:00,28.8,13.0,29.75,NW,309,6.0,9.0,51,0.00,,OVC100,0.00,VWS V14.01,2013-02-17 07:01:00,
2013-02-17 02:06:00,28.8,13.0,29.75,WNW,291,2.0,9.0,51,0.00,,OVC100,0.00,VWS V14.01,2013-02-17 07:06:00,
2013-02-17 02:11:00,28.7,12.9,29.75,NW,319,4.0,12.0,51,0.00,,OVC100,0.00,VWS V14.01,2013-02-17 07:11:00,
2013-02-17 02:16:00,28.7,12.4,29.75,NW,310,2.0,12.0,50,0.00,,OVC100,0.00,VWS V14.01,2013-02-17 07:16:00,
2013-02-17 02:21:00,28.7,12.4,29.75,NNW,328,6.0,12.0,50,0.00,,OVC100,0.00,VWS V14.01,2013-02-17 07:21:00,
2013-02-17 02:26:00,28.7,12.9,29.74,NW,318,6.0,12.0,51,0.00,,OVC100,0.00,VWS V14.01,2013-02-17 07:26:00,
2013-02-17 02:31:00,28.6,12.8,29.74,NW,315,5.0,12.0,51,0.00,,OVC100,0.00,VWS V14.01,2013-02-17 07:31:00,
2013-02-17 02:36:00,28.6,12.3,29.74,NW,318,5.0,12.0,50,0.00,,OVC100,0.00,VWS V14.01,2013-02-17 07:36:00,
2013-02-17 02:41:00,28.6,12.3,29.74,NW,323,5.0,12.0,50,0.00,,OVC100,0.00,VWS V14.01,2013-02-17 07:41:00,
2013-02-17 02:46:00,28.5,12.2,29.74,WNW,300,3.0,12.0,50,0.00,,OVC100,0.00,VWS V14.01,2013-02-17 07:46:00,
2013-02-17 02:51:00,28.5,11.8,29.74,WNW,290,5.0,14.0,49,0.00,,OVC100,0.00,VWS V14.01,2013-02-17 07:51:00,
2013-02-17 02:56:00,28.5,12.2,29.74,North,351,7.0,14.0,50,0.00,,OVC100,0.00,VWS V14.01,2013-02-17 07:56:00,
2013-02-17 03:01:00,28.5,12.2,29.74,NW,317,5.0,10.0,50,0.00,,OVC110,0.00,VWS V14.01,2013-02-17 08:01:00,
2013-02-17 03:06:00,28.4,12.1,29.74,NNW,347,4.0,14.0,50,0.00,,OVC110,0.00,VWS V14.01,2013-02-17 08:06:00,
2013-02-17 03:11:00,28.4,12.1,29.74,NW,306,8.0,14.0,50,0.00,,OVC110,0.00,VWS V14.01,2013-02-17 08:11:00,
2013-02-17 03:16:00,28.4,12.6,29.74,NW,308,6.0,14.0,51,0.00,,OVC110,0.00,VWS V14.01,2013-02-17 08:16:00,
2013-02-17 03:21:00,28.3,12.1,29.75,NW,321,2.0,14.0,50,0.00,,OVC110,0.00,VWS V14.01,2013-02-17 08:21:00,
2013-02-17 03:26:00,28.3,12.5,29.75,NW,323,3.0,14.0,51,0.00,,OVC110,0.00,VWS V14.01,2013-02-17 08:26:00,
2013-02-17 03:31:00,28.3,12.1,29.74,NW,325,4.0,7.0,50,0.00,,OVC110,0.00,VWS V14.01,2013-02-17 08:31:00,
2013-02-17 03:36:00,28.3,12.5,29.74,WNW,291,2.0,11.0,51,0.00,,OVC110,0.00,VWS V14.01,2013-02-17 08:36:00,
2013-02-17 03:41:00,28.2,12.4,29.74,NW,319,8.0,11.0,51,0.00,,OVC110,0.00,VWS V14.01,2013-02-17 08:41:00,
2013-02-17 03:46:00,28.2,12.4,29.74,NW,314,7.0,12.0,51,0.00,,OVC110,0.00,VWS V14.01,2013-02-17 08:46:00,
2013-02-17 03:51:00,28.2,12.4,29.73,North,355,2.0,12.0,51,0.00,,OVC110,0.00,VWS V14.01,2013-02-17 08:51:00,
2013-02-17 03:56:00,28.2,12.4,29.73,WNW,303,4.0,12.0,51,0.00,,OVC110,0.00,VWS V14.01,2013-02-17 08:56:00,
2013-02-17 04:01:00,28.2,12.4,29.73,NNW,333,9.0,11.0,51,0.00,,OVC100,0.00,VWS V14.01,2013-02-17 09:01:00,
2013-02-17 04:06:00,28.2,12.4,29.73,NW,321,10.0,11.0,51,0.00,,OVC100,0.00,VWS V14.01,2013-02-17 09:06:00,
2013-02-17 04:11:00,28.2,12.4,29.73,NW,317,5.0,11.0,51,0.00,,OVC100,0.00,VWS V14.01,2013-02-17 09:11:00,
2013-02-17 04:16:00,28.2,12.0,29.74,NW,310,5.0,13.0,50,0.00,,OVC100,0.00,VWS V14.01,2013-02-17 09:16:00,
2013-02-17 04:21:00,28.2,12.0,29.74,NNW,340,5.0,13.0,50,0.00,,OVC100,0.00,VWS V14.01,2013-02-17 09:21:00,
2013-02-17 04:26:00,28.2,11.0,29.73,NW,307,6.0,13.0,48,0.00,,OVC100,0.00,VWS V14.01,2013-02-17 09:26:00,
2013-02-17 04:32:00,28.2,11.0,29.73,WNW,292,6.0,7.0,48,0.00,,OVC100,0.00,VWS V14.01,2013-02-17 09:32:00,
2013-02-17 04:37:00,28.1,10.9,29.73,NNW,333,6.0,13.0,48,0.00,,OVC100,0.00,VWS V14.01,2013-02-17 09:37:00,
2013-02-17 04:42:00,28.1,10.5,29.73,WNW,290,1.0,13.0,47,0.00,,OVC100,0.00,VWS V14.01,2013-02-17 09:42:00,
2013-02-17 04:47:00,28.1,10.0,29.73,WNW,300,13.0,13.0,46,0.00,,OVC100,0.00,VWS V14.01,2013-02-17 09:47:00,
2013-02-17 04:52:00,28.1,10.0,29.73,WNW,298,3.0,16.0,46,0.00,,OVC100,0.00,VWS V14.01,2013-02-17 09:52:00,
2013-02-17 04:57:00,28.0,9.4,29.73,NW,313,7.0,16.0,45,0.00,,OVC100,0.00,VWS V14.01,2013-02-17 09:57:00,
2013-02-17 05:02:00,28.0,9.4,29.73,ENE,57,3.0,11.0,45,0.00,,SCT110,0.00,VWS V14.01,2013-02-17 10:02:00,
2013-02-17 05:07:00,28.0,9.4,29.73,NW,323,4.0,15.0,45,0.00,,SCT110,0.00,VWS V14.01,2013-02-17 10:07:00,
2013-02-17 05:12:00,27.9,8.8,29.73,NW,305,9.0,19.0,44,0.00,,SCT110,0.00,VWS V14.01,2013-02-17 10:12:00,
2013-02-17 05:17:00,27.9,8.8,29.73,NW,313,3.0,19.0,44,0.00,,SCT110,0.00,VWS V14.01,2013-02-17 10:17:00,
2013-02-17 05:22:00,27.8,8.2,29.73,WNW,286,12.0,19.0,43,0.00,,SCT110,0.00,VWS V14.01,2013-02-17 10:22:00,
2013-02-17 05:27:00,27.8,8.2,29.73,NNW,348,2.0,19.0,43,0.00,,SCT110,0.00,VWS V14.01,2013-02-17 10:27:00,
2013-02-17 05:32:00,27.7,7.6,29.74,NNW,336,7.0,16.0,42,0.00,,SCT110,0.00,VWS V14.01,2013-02-17 10:32:00,
2013-02-17 05:37:00,27.7,7.6,29.74,NNW,329,5.0,18.0,42,0.00,,SCT110,0.00,VWS V14.01,2013-02-17 10:37:00,
2013-02-17 05:42:00,27.6,7.5,29.74,NW,319,9.0,18.0,42,0.00,,SCT110,0.00,VWS V14.01,2013-02-17 10:42:00,
2013-02-17 05:47:00,27.6,7.5,29.74,NW,306,4.0,18.0,42,0.00,,SCT110,0.00,VWS V14.01,2013-02-17 10:47:00,
2013-02-17 05:52:00,27.6,7.5,29.74,NNW,339,12.0,18.0,42,0.00,,SCT110,0.00,VWS V14.01,2013-02-17 10:52:00,
2013-02-17 05:57:00,27.5,7.4,29.74,NW,307,3.0,18.0,42,0.00,,SCT110,0.00,VWS V14.01,2013-02-17 10:57:00,
2013-02-17 06:02:00,27.5,7.4,29.74,NW,318,12.0,12.0,42,0.00,,CLR,0.00,VWS V14.01,2013-02-17 11:02:00,
2013-02-17 06:07:00,27.4,7.3,29.74,North,355,5.0,13.0,42,0.00,,CLR,0.00,VWS V14.01,2013-02-17 11:07:00,
2013-02-17 06:12:00,27.4,7.9,29.74,NNW,345,6.0,13.0,43,0.00,,CLR,0.00,VWS V14.01,2013-02-17 11:12:00,
2013-02-17 06:17:00,27.3,7.2,29.74,NNW,332,10.0,14.0,42,0.00,,CLR,0.00,VWS V14.01,2013-02-17 11:17:00,
2013-02-17 06:22:00,27.3,7.8,29.74,NW,304,9.0,14.0,43,0.00,,CLR,0.00,VWS V14.01,2013-02-17 11:22:00,
2013-02-17 06:27:00,27.2,7.2,29.74,NW,317,4.0,16.0,42,0.00,,CLR,0.00,VWS V14.01,2013-02-17 11:27:00,
2013-02-17 06:32:00,27.1,7.6,29.74,NW,317,8.0,13.0,43,0.00,,CLR,0.00,VWS V14.01,2013-02-17 11:32:00,
2013-02-17 06:37:00,27.0,7.5,29.74,NW,304,10.0,13.0,43,0.00,,CLR,0.00,VWS V14.01,2013-02-17 11:37:00,
2013-02-17 06:42:00,26.9,7.4,29.74,WNW,284,10.0,16.0,43,0.00,,CLR,0.00,VWS V14.01,2013-02-17 11:42:00,
2013-02-17 06:47:00,26.8,7.3,29.74,NW,309,9.0,16.0,43,0.00,,CLR,0.00,VWS V14.01,2013-02-17 11:47:00,
2013-02-17 06:52:00,26.7,7.7,29.74,NW,319,11.0,16.0,44,0.00,,CLR,0.00,VWS V14.01,2013-02-17 11:52:00,
2013-02-17 06:57:00,26.6,7.6,29.74,NW,311,4.0,16.0,44,0.00,,CLR,0.00,VWS V14.01,2013-02-17 11:57:00,
2013-02-17 07:02:00,26.5,7.6,29.74,NW,306,13.0,13.0,44,0.00,,CLR,0.00,VWS V14.01,2013-02-17 12:02:00,
2013-02-17 07:07:00,26.5,7.6,29.74,North,360,5.0,13.0,44,0.00,,CLR,0.00,VWS V14.01,2013-02-17 12:07:00,
2013-02-17 07:12:00,26.4,7.9,29.74,West,277,3.0,13.0,45,0.00,,CLR,0.00,VWS V14.01,2013-02-17 12:12:00,
2013-02-17 07:17:00,26.4,7.9,29.75,NW,307,8.0,14.0,45,0.00,,CLR,0.00,VWS V14.01,2013-02-17 12:17:00,
2013-02-17 07:22:00,26.3,7.4,29.75,WNW,299,14.0,15.0,44,0.00,,CLR,0.00,VWS V14.01,2013-02-17 12:22:00,
2013-02-17 07:27:00,26.3,7.9,29.76,West,268,3.0,15.0,45,0.00,,CLR,0.00,VWS V14.01,2013-02-17 12:27:00,
2013-02-17 07:32:00,26.3,7.9,29.76,WNW,288,6.0,15.0,45,0.00,,CLR,0.00,VWS V14.01,2013-02-17 12:32:00,
2013-02-17 07:37:00,26.4,7.9,29.76,NW,323,6.0,15.0,45,0.00,,CLR,0.00,VWS V14.01,2013-02-17 12:37:00,
2013-02-17 07:42:00,26.4,7.9,29.76,NW,310,10.0,15.0,45,0.00,,CLR,0.00,VWS V14.01,2013-02-17 12:42:00,
2013-02-17 07:47:00,26.4,7.9,29.76,West,271,3.0,15.0,45,0.00,,CLR,0.00,VWS V14.01,2013-02-17 12:47:00,
2013-02-17 07:52:00,26.5,7.6,29.76,NW,310,3.0,15.0,44,0.00,,CLR,0.00,VWS V14.01,2013-02-17 12:52:00,
2013-02-17 07:57:00,26.5,8.0,29.77,NW,310,4.0,15.0,45,0.00,,CLR,0.00,VWS V14.01,2013-02-17 12:57:00,
2013-02-17 08:02:00,26.6,7.6,29.76,West,260,7.0,11.0,44,0.00,,CLR,0.00,VWS V14.01,2013-02-17 13:02:00,
2013-02-17 08:07:00,26.7,8.2,29.76,West,259,11.0,13.0,45,0.00,,CLR,0.00,VWS V14.01,2013-02-17 13:07:00,
2013-02-17 08:12:00,26.8,7.8,29.76,WSW,242,7.0,15.0,44,0.00,,CLR,0.00,VWS V14.01,2013-02-17 13:12:00,
2013-02-17 08:18:00,27.1,8.1,29.76,NW,315,7.0,15.0,44,0.00,,CLR,0.00,VWS V14.01,2013-02-17 13:18:00,
2013-02-17 08:23:00,27.4,8.4,29.76,NW,304,4.0,15.0,44,0.00,,CLR,0.00,VWS V14.01,2013-02-17 13:23:00,
2013-02-17 08:28:00,27.8,8.2,29.76,NW,317,11.0,15.0,43,0.00,,CLR,0.00,VWS V14.01,2013-02-17 13:28:00,
2013-02-17 08:33:00,28.2,8.1,29.76,West,266,9.0,12.0,42,0.00,,CLR,0.00,VWS V14.01,2013-02-17 13:33:00,
2013-02-17 08:38:00,28.6,8.4,29.76,WSW,254,7.0,14.0,42,0.00,,CLR,0.00,VWS V14.01,2013-02-17 13:38:00,
2013-02-17 08:43:00,29.0,8.3,29.76,WNW,298,7.0,16.0,41,0.00,,CLR,0.00,VWS V14.01,2013-02-17 13:43:00,
2013-02-17 08:48:00,29.0,8.3,29.76,NNW,344,12.0,16.0,41,0.00,,CLR,0.00,VWS V14.01,2013-02-17 13:48:00,
2013-02-17 08:53:00,29.3,8.0,29.75,NW,312,12.0,16.0,40,0.00,,CLR,0.00,VWS V14.01,2013-02-17 13:53:00,
2013-02-17 08:58:00,29.4,8.1,29.76,North,351,10.0,16.0,40,0.00,,CLR,0.00,VWS V14.01,2013-02-17 13:58:00,
2013-02-17 09:03:00,29.9,8.0,29.76,NW,317,11.0,17.0,39,0.00,,CLR,0.00,VWS V14.01,2013-02-17 14:03:00,
2013-02-17 09:08:00,30.3,8.3,29.76,WNW,302,5.0,19.0,39,0.00,,CLR,0.00,VWS V14.01,2013-02-17 14:08:00,
2013-02-17 09:13:00,30.7,8.1,29.76,NW,317,5.0,19.0,38,0.00,,CLR,0.00,VWS V14.01,2013-02-17 14:13:00,
2013-02-17 09:18:00,30.6,6.8,29.76,NW,313,4.0,19.0,36,0.00,,CLR,0.00,VWS V14.01,2013-02-17 14:18:00,
2013-02-17 09:23:00,30.9,7.7,29.76,NNW,330,6.0,19.0,37,0.00,,CLR,0.00,VWS V14.01,2013-02-17 14:23:00,
2013-02-17 09:28:00,31.4,8.1,29.76,WNW,287,8.0,19.0,37,0.00,,CLR,0.00,VWS V14.01,2013-02-17 14:28:00,
2013-02-17 09:33:00,31.1,7.9,29.76,WNW,295,2.0,19.0,37,0.00,,CLR,0.00,VWS V14.01,2013-02-17 14:33:00,
2013-02-17 09:38:00,31.3,8.1,29.76,North,355,13.0,19.0,37,0.00,,CLR,0.00,VWS V14.01,2013-02-17 14:38:00,
2013-02-17 09:43:00,31.6,8.3,29.76,West,276,6.0,19.0,37,0.00,,CLR,0.00,VWS V14.01,2013-02-17 14:43:00,
2013-02-17 09:48:00,31.5,7.6,29.76,NW,306,8.0,25.0,36,0.00,,CLR,0.00,VWS V14.01,2013-02-17 14:48:00,
2013-02-17 09:53:00,31.9,8.0,29.76,WSW,253,9.0,25.0,36,0.00,,CLR,0.00,VWS V14.01,2013-02-17 14:53:00,
2013-02-17 09:58:00,31.9,7.4,29.77,WNW,293,10.0,25.0,35,0.00,,CLR,0.00,VWS V14.01,2013-02-17 14:58:00,
2013-02-17 10:03:00,31.7,7.2,29.76,West,281,14.0,19.0,35,0.00,,CLR,0.00,VWS V14.01,2013-02-17 15:03:00,
2013-02-17 10:08:00,32.0,7.5,29.77,WNW,303,12.0,19.0,35,0.00,,CLR,0.00,VWS V14.01,2013-02-17 15:08:00,
2013-02-17 10:13:00,31.9,7.4,29.77,NW,325,15.0,19.0,35,0.00,,CLR,0.00,VWS V14.01,2013-02-17 15:13:00,
2013-02-17 10:18:00,32.0,7.5,29.77,WNW,300,8.0,21.0,35,0.00,,CLR,0.00,VWS V14.01,2013-02-17 15:18:00,
2013-02-17 10:23:00,31.8,7.3,29.78,NNW,348,5.0,22.0,35,0.00,,CLR,0.00,VWS V14.01,2013-02-17 15:23:00,
2013-02-17 10:28:00,32.4,7.8,29.78,NW,312,17.0,24.0,35,0.00,,CLR,0.00,VWS V14.01,2013-02-17 15:28:00,
2013-02-17 10:33:00,32.2,7.0,29.77,WNW,302,9.0,19.0,34,0.00,,CLR,0.00,VWS V14.01,2013-02-17 15:33:00,
2013-02-17 10:38:00,32.3,6.4,29.78,SW,221,10.0,24.0,33,0.00,,CLR,0.00,VWS V14.01,2013-02-17 15:38:00,
2013-02-17 10:43:00,32.3,7.7,29.78,NNW,328,5.0,24.0,35,0.00,,CLR,0.00,VWS V14.01,2013-02-17 15:43:00,
2013-02-17 10:48:00,32.8,8.2,29.78,West,270,5.0,24.0,35,0.00,,CLR,0.00,VWS V14.01,2013-02-17 15:48:00,
2013-02-17 10:53:00,33.7,8.3,29.78,WNW,284,10.0,24.0,34,0.00,,CLR,0.00,VWS V14.01,2013-02-17 15:53:00,
2013-02-17 10:58:00,33.9,8.5,29.78,WNW,298,8.0,24.0,34,0.00,,CLR,0.00,VWS V14.01,2013-02-17 15:58:00,
2013-02-17 11:03:00,34.2,8.1,29.78,West,277,12.0,18.0,33,0.00,,CLR,0.00,VWS V14.01,2013-02-17 16:03:00,
2013-02-17 11:08:00,33.5,7.5,29.78,NW,323,22.0,25.0,33,0.00,,CLR,0.00,VWS V14.01,2013-02-17 16:08:00,
2013-02-17 11:13:00,33.0,7.1,29.78,NW,318,4.0,25.0,33,0.00,,CLR,0.00,VWS V14.01,2013-02-17 16:13:00,
2013-02-17 11:18:00,33.0,7.1,29.78,NW,305,12.0,25.0,33,0.00,,CLR,0.00,VWS V14.01,2013-02-17 16:18:00,
2013-02-17 11:23:00,33.2,7.2,29.78,West,281,11.0,25.0,33,0.00,,CLR,0.00,VWS V14.01,2013-02-17 16:23:00,
2013-02-17 11:28:00,32.9,7.0,29.78,NNE,32,18.0,29.0,33,0.00,,CLR,0.00,VWS V14.01,2013-02-17 16:28:00,
2013-02-17 11:33:00,32.7,6.8,29.78,NW,310,11.0,23.0,33,0.00,,CLR,0.00,VWS V14.01,2013-02-17 16:33:00,
2013-02-17 11:38:00,33.1,7.1,29.78,West,272,12.0,23.0,33,0.00,,CLR,0.00,VWS V14.01,2013-02-17 16:38:00,
2013-02-17 11:43:00,33.4,7.4,29.78,NNW,348,6.0,23.0,33,0.00,,CLR,0.00,VWS V14.01,2013-02-17 16:43:00,
2013-02-17 11:48:00,34.0,7.9,29.79,NW,309,10.0,23.0,33,0.00,,CLR,0.00,VWS V14.01,2013-02-17 16:48:00,
2013-02-17 11:54:00,34.1,7.3,29.78,NNW,338,6.0,23.0,32,0.00,,CLR,0.00,VWS V14.01,2013-02-17 16:54:00,
2013-02-17 11:59:00,34.1,7.3,29.78,NNW,336,17.0,23.0,32,0.00,,CLR,0.00,VWS V14.01,2013-02-17 16:59:00,
2013-02-17 12:04:00,33.8,7.1,29.78,NW,305,8.0,23.0,32,0.00,,CLR,0.00,VWS V14.01,2013-02-17 17:04:00,
2013-02-17 12:09:00,33.8,7.1,29.78,NW,311,8.0,23.0,32,0.00,,CLR,0.00,VWS V14.01,2013-02-17 17:09:00,
2013-02-17 12:14:00,33.7,7.7,29.77,NW,323,17.0,23.0,33,0.00,,CLR,0.00,VWS V14.01,2013-02-17 17:14:00,
2013-02-17 12:19:00,33.9,8.5,29.77,NE,53,4.0,24.0,34,0.00,,CLR,0.00,VWS V14.01,2013-02-17 17:19:00,
2013-02-17 12:24:00,34.2,8.1,29.77,NW,305,11.0,24.0,33,0.00,,CLR,0.00,VWS V14.01,2013-02-17 17:24:00,
2013-02-17 12:29:00,34.3,7.5,29.77,NW,307,15.0,26.0,32,0.00,,CLR,0.00,VWS V14.01,2013-02-17 17:29:00,
2013-02-17 12:34:00,34.2,8.1,29.78,WNW,284,10.0,22.0,33,0.00,,CLR,0.00,VWS V14.01,2013-02-17 17:34:00,
2013-02-17 12:39:00,33.9,7.2,29.77,WNW,302,9.0,29.0,32,0.00,,CLR,0.00,VWS V14.01,2013-02-17 17:39:00,
2013-02-17 12:44:00,33.9,7.2,29.77,WNW,296,10.0,29.0,32,0.00,,CLR,0.00,VWS V14.01,2013-02-17 17:44:00,
2013-02-17 12:49:00,34.1,7.3,29.77,WNW,298,8.0,29.0,32,0.00,,CLR,0.00,VWS V14.01,2013-02-17 17:49:00,
2013-02-17 12:54:00,34.1,8.0,29.77,NNW,333,7.0,29.0,33,0.00,,CLR,0.00,VWS V14.01,2013-02-17 17:54:00,
2013-02-17 12:59:00,33.3,7.3,29.77,NW,304,9.0,29.0,33,0.00,,CLR,0.00,VWS V14.01,2013-02-17 17:59:00,
2013-02-17 13:04:00,32.4,7.8,29.78,NNW,327,13.0,23.0,35,0.00,,FEW070,0.00,VWS V14.01,2013-02-17 18:04:00,
2013-02-17 13:09:00,32.2,7.0,29.78,NW,307,18.0,25.0,34,0.00,,FEW070,0.00,VWS V14.01,2013-02-17 18:09:00,
2013-02-17 13:14:00,32.9,7.6,29.78,WSW,253,7.0,25.0,34,0.00,,FEW070,0.00,VWS V14.01,2013-02-17 18:14:00,
2013-02-17 13:19:00,32.4,7.2,29.78,WSW,255,19.0,25.0,34,0.00,,FEW070,0.00,VWS V14.01,2013-02-17 18:19:00,
2013-02-17 13:24:00,32.2,7.0,29.78,West,277,12.0,27.0,34,0.00,,FEW070,0.00,VWS V14.01,2013-02-17 18:24:00,
2013-02-17 13:29:00,32.1,6.9,29.78,NW,315,11.0,27.0,34,0.00,,FEW070,0.00,VWS V14.01,2013-02-17 18:29:00,
2013-02-17 13:34:00,32.0,7.5,29.78,West,273,11.0,19.0,35,0.00,,FEW070,0.00,VWS V14.01,2013-02-17 18:34:00,
2013-02-17 13:39:00,32.1,7.6,29.78,WNW,290,8.0,19.0,35,0.00,,FEW070,0.00,VWS V14.01,2013-02-17 18:39:00,
2013-02-17 13:44:00,32.8,7.5,29.78,WNW,285,10.0,34.0,34,0.00,,FEW070,0.00,VWS V14.01,2013-02-17 18:44:00,
2013-02-17 13:49:00,33.8,7.8,29.78,West,268,12.0,34.0,33,0.00,,FEW070,0.00,VWS V14.01,2013-02-17 18:49:00,
2013-02-17 13:54:00,33.2,6.6,29.79,WNW,295,10.0,34.0,32,0.00,,FEW070,0.00,VWS V14.01,2013-02-17 18:54:00,
2013-02-17 13:59:00,32.1,4.9,29.79,WNW,302,13.0,34.0,31,0.00,,FEW070,0.00,VWS V14.01,2013-02-17 18:59:00,
2013-02-17 14:04:00,31.1,5.4,29.80,WNW,288,19.0,19.0,33,0.00,,FEW070,0.00,VWS V14.01,2013-02-17 19:04:00,
2013-02-17 14:09:00,30.5,5.5,29.80,WNW,288,13.0,23.0,34,0.00,,FEW070,0.00,VWS V14.01,2013-02-17 19:09:00,
2013-02-17 14:14:00,30.6,6.2,29.80,West,273,11.0,23.0,35,0.00,,FEW070,0.00,VWS V14.01,2013-02-17 19:14:00,
2013-02-17 14:19:00,30.9,7.1,29.80,NW,307,15.0,23.0,36,0.00,,FEW070,0.00,VWS V14.01,2013-02-17 19:19:00,
2013-02-17 14:24:00,31.6,5.8,29.80,NNW,333,19.0,27.0,33,0.00,,FEW070,0.00,VWS V14.01,2013-02-17 19:24:00,
2013-02-17 14:29:00,32.0,6.2,29.80,NNW,336,7.0,10.0,33,0.00,,FEW070,0.00,VWS V14.01,2013-02-17 19:29:00,
2013-02-17 14:34:00,32.3,6.4,29.80,WNW,287,11.0,22.0,33,0.00,,FEW070,0.00,VWS V14.01,2013-02-17 19:34:00,
2013-02-17 14:39:00,32.5,6.6,29.81,NW,312,8.0,22.0,33,0.00,,FEW070,0.00,VWS V14.01,2013-02-17 19:39:00,
2013-02-17 14:44:00,32.5,6.6,29.80,NNW,339,5.0,22.0,33,0.00,,FEW070,0.00,VWS V14.01,2013-02-17 19:44:00,
2013-02-17 14:49:00,32.4,7.2,29.81,NW,309,12.0,22.0,34,0.00,,FEW070,0.00,VWS V14.01,2013-02-17 19:49:00,
2013-02-17 14:55:00,31.7,5.9,29.81,WNW,288,10.0,22.0,33,0.00,,FEW070,0.00,VWS V14.01,2013-02-17 19:55:00,
2013-02-17 15:00:00,31.2,6.1,29.81,NNW,336,14.0,14.0,34,0.00,,FEW070,0.00,VWS V14.01,2013-02-17 20:00:00,
2013-02-17 15:05:00,31.5,5.7,29.81,NW,324,6.0,25.0,33,0.00,,OVC070,0.00,VWS V14.01,2013-02-17 20:05:00,
2013-02-17 15:10:00,31.3,4.9,29.81,WNW,302,14.0,27.0,32,0.00,,OVC070,0.00,VWS V14.01,2013-02-17 20:10:00,
2013-02-17 15:15:00,31.8,6.6,29.81,NW,304,8.0,27.0,34,0.00,,OVC070,0.00,VWS V14.01,2013-02-17 20:15:00,
2013-02-17 15:20:00,32.0,6.8,29.81,NW,311,4.0,27.0,34,0.00,,OVC070,0.00,VWS V14.01,2013-02-17 20:20:00,
2013-02-17 15:25:00,32.3,6.4,29.81,WNW,300,10.0,27.0,33,0.00,,OVC070,0.00,VWS V14.01,2013-02-17 20:25:00,
2013-02-17 15:30:00,31.7,5.2,29.81,WNW,301,5.0,21.0,32,0.00,,OVC070,0.00,VWS V14.01,2013-02-17 20:30:00,
2013-02-17 15:35:00,30.8,5.8,29.82,West,266,8.0,25.0,34,0.00,,OVC070,0.00,VWS V14.01,2013-02-17 20:35:00,
2013-02-17 15:40:00,30.7,8.1,29.82,WNW,303,11.0,25.0,38,0.00,,OVC070,0.00,VWS V14.01,2013-02-17 20:40:00,
2013-02-17 15:45:00,31.5,8.8,29.82,WSW,246,7.0,25.0,38,0.00,,OVC070,0.00,VWS V14.01,2013-02-17 20:45:00,
2013-02-17 15:50:00,32.3,9.0,29.82,NW,322,12.0,25.0,37,0.00,,OVC070,0.00,VWS V14.01,2013-02-17 20:50:00,
2013-02-17 15:55:00,32.4,7.8,29.82,NNW,334,9.0,25.0,35,0.00,,OVC070,0.00,VWS V14.01,2013-02-17 20:55:00,
2013-02-17 16:00:00,31.7,7.2,29.83,NW,323,10.0,12.0,35,0.00,,BKN070,0.00,VWS V14.01,2013-02-17 21:00:00,
2013-02-17 16:05:00,31.1,6.0,29.83,WNW,300,19.0,21.0,34,0.00,,BKN070,0.00,VWS V14.01,2013-02-17 21:05:00,
2013-02-17 16:10:00,30.9,7.1,29.83,NNW,333,12.0,21.0,36,0.00,,BKN070,0.00,VWS V14.01,2013-02-17 21:10:00,
2013-02-17 16:15:00,30.8,7.0,29.83,NW,315,11.0,21.0,36,0.00,,BKN070,0.00,VWS V14.01,2013-02-17 21:15:00,
2013-02-17 16:20:00,30.8,7.6,29.82,NNW,331,15.0,21.0,37,0.00,,BKN070,0.00,VWS V14.01,2013-02-17 21:20:00,
2013-02-17 16:25:00,30.8,7.6,29.83,NW,317,8.0,21.0,37,0.00,,BKN070,0.00,VWS V14.01,2013-02-17 21:25:00,
2013-02-17 16:30:00,30.3,8.3,29.83,WNW,282,2.0,11.0,39,0.00,,BKN070,0.00,VWS V14.01,2013-02-17 21:30:00,
2013-02-17 16:35:00,30.2,7.7,29.83,NNW,343,10.0,15.0,38,0.00,,BKN070,0.00,VWS V14.01,2013-02-17 21:35:00,
2013-02-17 16:40:00,29.8,8.4,29.84,NW,324,7.0,18.0,40,0.00,,BKN070,0.00,VWS V14.01,2013-02-17 21:40:00,
2013-02-17 16:45:00,29.5,8.2,29.84,WNW,286,5.0,18.0,40,0.00,,BKN070,0.00,VWS V14.01,2013-02-17 21:45:00,
2013-02-17 16:50:00,29.5,8.2,29.84,NW,314,4.0,18.0,40,0.00,,BKN070,0.00,VWS V14.01,2013-02-17 21:50:00,
2013-02-17 16:55:00,29.3,6.9,29.84,NW,323,18.0,22.0,38,0.00,,BKN070,0.00,VWS V14.01,2013-02-17 21:55:00,
2013-02-17 17:00:00,29.1,5.5,29.85,West,275,5.0,12.0,36,0.00,,OVC070,0.00,VWS V14.01,2013-02-17 22:00:00,
2013-02-17 17:05:00,28.9,6.5,29.85,NW,313,13.0,21.0,38,0.00,,OVC070,0.00,VWS V14.01,2013-02-17 22:05:00,
2013-02-17 17:10:00,28.7,6.3,29.85,WNW,298,9.0,26.0,38,0.00,,OVC070,0.00,VWS V14.01,2013-02-17 22:10:00,
2013-02-17 17:15:00,28.4,6.6,29.86,WNW,292,4.0,26.0,39,0.00,,OVC070,0.00,VWS V14.01,2013-02-17 22:15:00,
2013-02-17 17:20:00,28.1,6.9,29.86,West,275,8.0,26.0,40,0.00,,OVC070,0.00,VWS V14.01,2013-02-17 22:20:00,
2013-02-17 17:25:00,27.9,7.8,29.87,NW,321,9.0,26.0,42,0.00,,OVC070,0.00,VWS V14.01,2013-02-17 22:25:00,
2013-02-17 17:30:00,27.7,8.1,29.87,NW,325,19.0,19.0,43,0.00,,OVC070,0.00,VWS V14.01,2013-02-17 22:30:00,
2013-02-17 17:35:00,27.4,7.9,29.87,WNW,296,5.0,21.0,43,0.00,,OVC070,0.00,VWS V14.01,2013-02-17 22:35:00,
2013-02-17 17:40:00,27.2,7.7,29.88,NW,311,7.0,26.0,43,0.00,,OVC070,0.00,VWS V14.01,2013-02-17 22:40:00,
2013-02-17 17:45:00,27.0,8.0,29.88,WNW,301,7.0,26.0,44,0.00,,OVC070,0.00,VWS V14.01,2013-02-17 22:45:00,
2013-02-17 17:50:00,27.0,9.0,29.88,WNW,286,7.0,26.0,46,0.00,,OVC070,0.00,VWS V14.01,2013-02-17 22:50:00,
2013-02-17 17:55:00,27.1,9.6,29.89,NW,325,22.0,26.0,47,0.00,,OVC070,0.00,VWS V14.01,2013-02-17 22:55:00,
2013-02-17 18:00:00,27.0,10.9,29.89,NNW,340,11.0,16.0,50,0.00,,FEW049,0.00,VWS V14.01,2013-02-17 23:00:00,
2013-02-17 18:05:00,27.0,10.4,29.89,WNW,288,5.0,16.0,49,0.00,,FEW049,0.00,VWS V14.01,2013-02-17 23:05:00,
2013-02-17 18:11:00,27.0,9.9,29.90,NW,305,5.0,16.0,48,0.00,,FEW049,0.00,VWS V14.01,2013-02-17 23:11:00,
2013-02-17 18:16:00,26.9,9.9,29.90,WNW,286,7.0,16.0,48,0.00,,FEW049,0.00,VWS V14.01,2013-02-17 23:16:00,
2013-02-17 18:21:00,26.9,8.9,29.90,NW,310,4.0,17.0,46,0.00,,FEW049,0.00,VWS V14.01,2013-02-17 23:21:00,
2013-02-17 18:26:00,26.7,8.7,29.90,NW,307,10.0,17.0,46,0.00,,FEW049,0.00,VWS V14.01,2013-02-17 23:26:00,
2013-02-17 18:31:00,26.5,8.5,29.91,NNW,344,3.0,13.0,46,0.00,,FEW049,0.00,VWS V14.01,2013-02-17 23:31:00,
2013-02-17 18:36:00,26.2,8.3,29.91,West,263,9.0,14.0,46,0.00,,FEW049,0.00,VWS V14.01,2013-02-17 23:36:00,
2013-02-17 18:41:00,26.1,8.2,29.91,NNW,327,10.0,17.0,46,0.00,,FEW049,0.00,VWS V14.01,2013-02-17 23:41:00,
2013-02-17 18:46:00,26.0,8.1,29.92,NW,304,8.0,17.0,46,0.00,,FEW049,0.00,VWS V14.01,2013-02-17 23:46:00,
2013-02-17 18:51:00,25.9,8.9,29.92,NW,317,6.0,18.0,48,0.00,,FEW049,0.00,VWS V14.01,2013-02-17 23:51:00,
2013-02-17 18:56:00,26.1,8.2,29.92,WNW,294,11.0,22.0,46,0.00,,FEW049,0.00,VWS V14.01,2013-02-17 23:56:00,
2013-02-17 19:01:00,25.9,7.5,29.92,WNW,296,4.0,13.0,45,0.00,,CLR,0.00,VWS V14.01,2013-02-18 00:01:00,
2013-02-17 19:06:00,26.0,7.6,29.93,NW,325,13.0,16.0,45,0.00,,CLR,0.00,VWS V14.01,2013-02-18 00:06:00,
2013-02-17 19:11:00,25.8,7.4,29.93,West,277,4.0,16.0,45,0.00,,CLR,0.00,VWS V14.01,2013-02-18 00:11:00,
2013-02-17 19:16:00,25.7,6.8,29.93,WNW,290,9.0,19.0,44,0.00,,CLR,0.00,VWS V14.01,2013-02-18 00:16:00,
2013-02-17 19:21:00,25.5,6.1,29.94,NW,323,6.0,19.0,43,0.00,,CLR,0.00,VWS V14.01,2013-02-18 00:21:00,
2013-02-17 19:26:00,25.4,5.0,29.93,North,350,10.0,24.0,41,0.00,,CLR,0.00,VWS V14.01,2013-02-18 00:26:00,
2013-02-17 19:31:00,25.2,4.8,29.94,NW,317,8.0,12.0,41,0.00,,CLR,0.00,VWS V14.01,2013-02-18 00:31:00,
2013-02-17 19:36:00,25.3,5.4,29.94,WNW,297,9.0,16.0,42,0.00,,CLR,0.00,VWS V14.01,2013-02-18 00:36:00,
2013-02-17 19:41:00,25.2,5.9,29.95,NNW,331,15.0,19.0,43,0.00,,CLR,0.00,VWS V14.01,2013-02-18 00:41:00,
2013-02-17 19:46:00,25.2,5.9,29.95,NNW,328,8.0,19.0,43,0.00,,CLR,0.00,VWS V14.01,2013-02-18 00:46:00,
2013-02-17 19:51:00,24.9,5.6,29.95,WNW,302,5.0,19.0,43,0.00,,CLR,0.00,VWS V14.01,2013-02-18 00:51:00,
2013-02-17 19:56:00,24.7,5.9,29.95,NNW,338,8.0,19.0,44,0.00,,CLR,0.00,VWS V14.01,2013-02-18 00:56:00,
2013-02-17 20:01:00,24.5,5.7,29.96,WNW,288,7.0,8.0,44,0.00,,CLR,0.00,VWS V14.01,2013-02-18 01:01:00,
2013-02-17 20:06:00,24.5,4.7,29.96,WNW,302,5.0,20.0,42,0.00,,CLR,0.00,VWS V14.01,2013-02-18 01:06:00,
2013-02-17 20:11:00,24.4,5.1,29.96,NW,316,12.0,20.0,43,0.00,,CLR,0.00,VWS V14.01,2013-02-18 01:11:00,
2013-02-17 20:16:00,24.3,5.0,29.97,WSW,254,4.0,20.0,43,0.00,,CLR,0.00,VWS V14.01,2013-02-18 01:16:00,
2013-02-17 20:21:00,24.3,4.5,29.97,WNW,300,7.0,20.0,42,0.00,,CLR,0.00,VWS V14.01,2013-02-18 01:21:00,
2013-02-17 20:26:00,24.2,3.4,29.97,NW,304,13.0,23.0,40,0.00,,CLR,0.00,VWS V14.01,2013-02-18 01:26:00,
2013-02-17 20:31:00,24.3,4.0,29.98,SSW,198,6.0,11.0,41,0.00,,CLR,0.00,VWS V14.01,2013-02-18 01:31:00,
2013-02-17 20:36:00,24.2,3.4,29.98,WNW,285,15.0,22.0,40,0.00,,CLR,0.00,VWS V14.01,2013-02-18 01:36:00,
2013-02-17 20:41:00,24.0,3.2,29.98,WNW,287,8.0,22.0,40,0.00,,CLR,0.00,VWS V14.01,2013-02-18 01:41:00,
2013-02-17 20:46:00,24.0,3.2,29.99,West,271,11.0,22.0,40,0.00,,CLR,0.00,VWS V14.01,2013-02-18 01:46:00,
2013-02-17 20:51:00,23.8,3.0,29.99,WNW,290,4.0,22.0,40,0.00,,CLR,0.00,VWS V14.01,2013-02-18 01:51:00,
2013-02-17 20:56:00,23.5,3.3,29.99,NNW,328,8.0,22.0,41,0.00,,CLR,0.00,VWS V14.01,2013-02-18 01:56:00,
2013-02-17 21:01:00,23.5,3.3,29.99,NW,320,8.0,9.0,41,0.00,,CLR,0.00,VWS V14.01,2013-02-18 02:01:00,
2013-02-17 21:06:00,23.3,3.1,30.00,NNW,339,14.0,16.0,41,0.00,,CLR,0.00,VWS V14.01,2013-02-18 02:06:00,
2013-02-17 21:11:00,22.9,2.7,30.00,WNW,286,7.0,21.0,41,0.00,,CLR,0.00,VWS V14.01,2013-02-18 02:11:00,
2013-02-17 21:16:00,22.6,3.0,30.01,West,273,11.0,21.0,42,0.00,,CLR,0.00,VWS V14.01,2013-02-18 02:16:00,
2013-02-17 21:21:00,22.6,3.0,30.01,NNW,340,8.0,21.0,42,0.00,,CLR,0.00,VWS V14.01,2013-02-18 02:21:00,
2013-02-17 21:26:00,22.3,2.7,30.01,NW,306,13.0,21.0,42,0.00,,CLR,0.00,VWS V14.01,2013-02-18 02:26:00,
2013-02-17 21:31:00,22.1,2.5,30.01,WNW,282,14.0,22.0,42,0.00,,CLR,0.00,VWS V14.01,2013-02-18 02:31:00,
2013-02-17 21:36:00,21.8,2.8,30.02,WNW,300,5.0,22.0,43,0.00,,CLR,0.00,VWS V14.01,2013-02-18 02:36:00,
2013-02-17 21:41:00,21.7,3.2,30.02,NW,306,12.0,22.0,44,0.00,,CLR,0.00,VWS V14.01,2013-02-18 02:41:00,
2013-02-17 21:46:00,21.7,3.2,30.03,West,276,13.0,22.0,44,0.00,,CLR,0.00,VWS V14.01,2013-02-18 02:46:00,
2013-02-17 21:51:00,21.5,3.0,30.03,NW,321,14.0,22.0,44,0.00,,CLR,0.00,VWS V14.01,2013-02-18 02:51:00,
2013-02-17 21:56:00,21.3,3.3,30.03,WNW,298,18.0,22.0,45,0.00,,CLR,0.00,VWS V14.01,2013-02-18 02:56:00,
2013-02-17 22:01:00,21.3,3.8,30.03,WNW,286,6.0,8.0,46,0.00,,CLR,0.00,VWS V14.01,2013-02-18 03:01:00,
2013-02-17 22:07:00,21.1,2.6,30.03,WNW,285,9.0,19.0,44,0.00,,FEW050,0.00,VWS V14.01,2013-02-18 03:07:00,
2013-02-17 22:12:00,20.9,2.4,30.03,NNW,329,6.0,19.0,44,0.00,,FEW050,0.00,VWS V14.01,2013-02-18 03:12:00,
2013-02-17 22:17:00,20.6,2.2,30.04,WNW,289,6.0,19.0,44,0.00,,FEW050,0.00,VWS V14.01,2013-02-18 03:17:00,
2013-02-17 22:22:00,20.4,2.0,30.04,NW,318,12.0,19.0,44,0.00,,FEW050,0.00,VWS V14.01,2013-02-18 03:22:00,
2013-02-17 22:27:00,20.3,1.9,30.04,NNW,330,18.0,19.0,44,0.00,,FEW050,0.00,VWS V14.01,2013-02-18 03:27:00,
2013-02-17 22:32:00,20.2,1.8,30.04,North,355,16.0,23.0,44,0.00,,FEW050,0.00,VWS V14.01,2013-02-18 03:32:00,
2013-02-17 22:37:00,20.1,2.2,30.05,NW,305,7.0,23.0,45,0.00,,FEW050,0.00,VWS V14.01,2013-02-18 03:37:00,
2013-02-17 22:42:00,20.0,2.1,30.05,NNW,329,7.0,23.0,45,0.00,,FEW050,0.00,VWS V14.01,2013-02-18 03:42:00,
2013-02-17 22:47:00,19.9,2.0,30.05,West,277,9.0,23.0,45,0.00,,FEW050,0.00,VWS V14.01,2013-02-18 03:47:00,
2013-02-17 22:52:00,19.9,2.0,30.05,WNW,302,17.0,23.0,45,0.00,,FEW050,0.00,VWS V14.01,2013-02-18 03:52:00,
2013-02-17 22:57:00,19.9,2.0,30.05,West,281,9.0,26.0,45,0.00,,FEW050,0.00,VWS V14.01,2013-02-18 03:57:00,
2013-02-17 23:02:00,19.8,2.4,30.06,West,273,7.0,16.0,46,0.00,,CLR,0.00,VWS V14.01,2013-02-18 04:02:00,
2013-02-17 23:07:00,19.9,2.0,30.06,NW,304,11.0,20.0,45,0.00,,CLR,0.00,VWS V14.01,2013-02-18 04:07:00,
2013-02-17 23:12:00,19.8,2.4,30.06,NNW,327,9.0,20.0,46,0.00,,CLR,0.00,VWS V14.01,2013-02-18 04:12:00,
2013-02-17 23:17:00,19.8,2.4,30.07,NNW,332,10.0,20.0,46,0.00,,CLR,0.00,VWS V14.01,2013-02-18 04:17:00,
2013-02-17 23:22:00,19.8,2.4,30.07,WNW,292,6.0,20.0,46,0.00,,CLR,0.00,VWS V14.01,2013-02-18 04:22:00,
2013-02-17 23:27:00,19.7,2.3,30.07,NNW,339,8.0,20.0,46,0.00,,CLR,0.00,VWS V14.01,2013-02-18 04:27:00,
2013-02-17 23:32:00,19.7,2.3,30.07,WNW,290,7.0,12.0,46,0.00,,CLR,0.00,VWS V14.01,2013-02-18 04:32:00,
2013-02-17 23:37:00,19.6,2.7,30.07,WNW,302,4.0,12.0,47,0.00,,CLR,0.00,VWS V14.01,2013-02-18 04:37:00,
2013-02-17 23:42:00,19.6,2.7,30.07,WSW,245,5.0,15.0,47,0.00,,CLR,0.00,VWS V14.01,2013-02-18 04:42:00,
2013-02-17 23:47:00,19.5,2.1,30.07,West,261,4.0,16.0,46,0.00,,CLR,0.00,VWS V14.01,2013-02-18 04:47:00,
2013-02-17 23:52:00,19.6,2.2,30.07,NNW,342,15.0,16.0,46,0.00,,CLR,0.00,VWS V14.01,2013-02-18 04:52:00,
2013-02-17 23:57:00,19.6,2.2,30.07,West,273,5.0,18.0,46,0.00,,CLR,0.00,VWS V14.01,2013-02-18 04:57:00,